STARLINK-30924, 58412

Orbit data source: Space-Track

STARLINK-30924, 58412 is a payload satellite owned by SpaceX/Seattle (US) in LEO that was launched on Wed, 22 Nov 2023 UTC via an FALCON 9 launch vehicle from the Air Force Eastern Test Range (AFETR). Payload-class satellites include a variety of spacecraft equipped with specific instruments for various scientific and technological missions. These include communications satellites like Starlink; space stations such as the ISS; scientific satellites like the Hubble; Earth observation satellites from companies like Planet Labs, Umbra, and HawkEye 360; GPS; miniature CubeSats for education and research; and military/defense satellites.

Loading next visibility...
Identifier
58412, 2023-180L
Orbit
LEO
Country
Flag of USUS
Related business
Manufacturer
SpaceX/Seattle
Mission
Partially operational Commercial Communications
Bus & Motor
STARLINK V2M, Unknown motor
Mass
730 kg wet, ~700 kg dry
Launch date (UTC)
2023-11-22 (3 years ago)
Launch vehicle
FALCON 9
Launch site
Air Force Eastern Test Range (AFETR)
Object type
Payload
Rocket body
Debris
Shape & HBR
Box + 2 Pan, 17.7 m
Radar Cross Section
33.884 m², Large (>1 m²)

Expand to show TLE details & history
Last TLE update: 2 days ago

TLE from 2 days ago
0 STARLINK-30924
1 58412U 23180L   26171.34059674  .00038972  00000-0  73816-3 0  9996
2 58412  42.9961  35.3478 0017180 252.9637 106.9340 15.47527623145177
Epoch: 2026-06-20T08:10Z
TLE epoch observation values (Epoch: 2026-06-20T08:10:27.558Z)
Latitude
0.00001°
Longitude
4.17636°
Altitude
427.156 km
Speed
7.655 km/s
True Right ascension
02h 21m 23s
True Declination
0° 00' 00"
Sunlit
Object was in daylight at epoch
Visualization orbit readout
Latitude
Unknown
Longitude
Unknown
Altitude
Unknown
Speed
Unknown
Apparent Right ascension
Unknown
Apparent Declination
Unknown
Sunlit
N/A
Visualization observer readout
Local Sidereal Time
23:18:23
Azimuth
Unknown
Elevation
Unknown
Doppler factor
Unknown
Orbital elements
Apogee altitude
437.613 km
Perigee altitude
414.235 km
Semi-major axis
6,804.061 km
Eccentricity
0.00172
Inclination
42.9961°
RAAN
35.3478°
Arg. of periapsis
252.9637°
True anomaly
107.12221°
Mean anomaly
106.934°
Eccentric anomaly
107.02812°
Mean motion
3.86715 °/min
Orbital period
93.09 mins
BSTAR
0.00073816
Loading maneuver chart data...
Computing Atmospheric mass density...
Loading historical data...
Loading historical data...
Loading historical data...
Loading historical data...
Loading historical data...
Loading historical data...
Loading historical data...

Documentation

Showing up to 5 results
|